Location: Unspecified
(43.4680°N, 87.1740°E)
Time: 20:42:23
(UTC+00:00)

Cosmos 2251 Rocket - Pass Details

Date: 17 April 2021
Orbit: 765 x 791 km, 74.0° (Epoch: 11 May)

Event Time Altitude Azimuth Distance (km) Brightness Sun altitude
Rises 13:44:47 0° 167° (SSE) 3,273 6.4 -9.0°
Reaches altitude 10° 13:47:28 10° 156° (SSE) 2,348 5.6 -9.5°
Maximum altitude 13:51:55 27° 99° (E) 1,466 4.4 -10.2°
Drops below altitude 10° 13:56:22 10° 43° (NE) 2,353 5.9 -10.9°
Sets 13:59:04 0° 32° (NNE) 3,283 6.7 -11.4°
